owner,sensor,date,latitude,longitude,vertical_datum,direction_of_sea_water_velocity,sea_water_speed,upward_sea_water_velocity,qcFlag 
TABS,ioos:station:TABS:X:1,2019-01-07T00:00:00Z,27.0660,-96.3383,2.0,173.2799985,23.50144889,-99999.0,'11111222,11111222,99999999' 
TABS,ioos:station:TABS:X:1,2019-01-07T00:30:00Z,27.0660,-96.3383,2.0,313.1509818,15.11874664,-99999.0,'11111222,11111222,99999999' 
TABS,ioos:station:TABS:X:1,2019-01-07T01:00:00Z,27.0660,-96.3383,2.0,273.3477502,19.35301785,-99999.0,'11111222,11111222,99999999' 
TABS,ioos:station:TABS:X:1,2019-01-07T01:30:00Z,27.0660,-96.3383,2.0,310.6869137,14.57231965,-99999.0,'11111222,11111222,99999999' 
TABS,ioos:station:TABS:X:1,2019-01-07T02:00:00Z,27.0660,-96.3383,2.0,269.1917627,45.39451178,-99999.0,'11111222,11111222,99999999' 
TABS,ioos:station:TABS:X:1,2019-01-07T02:30:00Z,27.0660,-96.3383,2.0,273.1222475,35.07204727,-99999.0,'11111222,11111222,99999999' 
TABS,ioos:station:TABS:X:1,2019-01-07T03:00:00Z,27.0660,-96.3383,2.0,253.1754433,27.67454065,-99999.0,'11111222,11111222,99999999' 
TABS,ioos:station:TABS:X:1,2019-01-07T03:30:00Z,27.0660,-96.3383,2.0,259.2894164,46.65270089,-99999.0,'11111222,11111222,99999999' 
TABS,ioos:station:TABS:X:1,2019-01-07T04:00:00Z,27.0660,-96.3383,2.0,257.8021961,49.50761255,-99999.0,'11111222,11111222,99999999' 
TABS,ioos:station:TABS:X:1,2019-01-07T04:30:00Z,27.0660,-96.3383,2.0,227.5017536,47.78233251,-99999.0,'11111222,11111222,99999999' 
TABS,ioos:station:TABS:X:1,2019-01-07T05:00:00Z,27.0660,-96.3383,2.0,247.1238354,58.03442513,-99999.0,'11111222,11111222,99999999' 
TABS,ioos:station:TABS:X:1,2019-01-07T05:30:00Z,27.0660,-96.3383,2.0,221.2789037,43.91196762,-99999.0,'11111222,11111222,99999999' 
TABS,ioos:station:TABS:X:1,2019-01-07T06:00:00Z,27.0660,-96.3383,2.0,255.824827,48.14588767,-99999.0,'11111222,11111222,99999999' 
TABS,ioos:station:TABS:X:1,2019-01-07T06:30:00Z,27.0660,-96.3383,2.0,239.8444206,41.56510556,-99999.0,'11111222,11111222,99999999' 
TABS,ioos:station:TABS:X:1,2019-01-07T07:00:00Z,27.0660,-96.3383,2.0,257.6078571,52.14480799,-99999.0,'11111222,11111222,99999999' 
TABS,ioos:station:TABS:X:1,2019-01-07T07:30:00Z,27.0660,-96.3383,2.0,249.6343174,35.86160621,-99999.0,'11111222,11111222,99999999' 
TABS,ioos:station:TABS:X:1,2019-01-07T08:00:00Z,27.0660,-96.3383,2.0,241.42435,52.01612058,-99999.0,'11111222,11111222,99999999' 
TABS,ioos:station:TABS:X:1,2019-01-07T08:30:00Z,27.0660,-96.3383,2.0,271.0171351,38.8861222,-99999.0,'11111222,11111222,99999999' 
TABS,ioos:station:TABS:X:1,2019-01-07T09:00:00Z,27.0660,-96.3383,2.0,254.5945078,40.20447736,-99999.0,'11111222,11111222,99999999' 
TABS,ioos:station:TABS:X:1,2019-01-07T09:30:00Z,27.0660,-96.3383,2.0,262.3790092,49.61823052,-99999.0,'11111222,11111222,99999999' 
TABS,ioos:station:TABS:X:1,2019-01-07T10:00:00Z,27.0660,-96.3383,2.0,251.7315969,44.50292238,-99999.0,'11111222,11111222,99999999' 
TABS,ioos:station:TABS:X:1,2019-01-07T10:30:00Z,27.0660,-96.3383,2.0,271.1904492,41.4089314,-99999.0,'11111222,11111222,99999999' 
TABS,ioos:station:TABS:X:1,2019-01-07T11:00:00Z,27.0660,-96.3383,2.0,265.6912115,40.86547932,-99999.0,'11111222,11111222,99999999' 
TABS,ioos:station:TABS:X:1,2019-01-07T11:30:00Z,27.0660,-96.3383,2.0,241.2205547,39.59006946,-99999.0,'11111222,11111222,99999999' 
TABS,ioos:station:TABS:X:1,2019-01-07T12:00:00Z,27.0660,-96.3383,2.0,244.1793915,44.72513835,-99999.0,'11111222,11111222,99999999' 
TABS,ioos:station:TABS:X:1,2019-01-07T12:30:00Z,27.0660,-96.3383,2.0,241.3978386,31.70958846,-99999.0,'11111222,11111222,99999999' 
TABS,ioos:station:TABS:X:1,2019-01-07T13:00:00Z,27.0660,-96.3383,2.0,235.6349188,55.82335085,-99999.0,'11111222,11111222,99999999' 
TABS,ioos:station:TABS:X:1,2019-01-07T13:30:00Z,27.0660,-96.3383,2.0,233.0402403,60.15807344,-99999.0,'11111222,11111222,99999999' 
TABS,ioos:station:TABS:X:1,2019-01-07T14:00:00Z,27.0660,-96.3383,2.0,237.3054039,57.13165497,-99999.0,'11111222,11111222,99999999' 
TABS,ioos:station:TABS:X:1,2019-01-07T14:30:00Z,27.0660,-96.3383,2.0,238.2540819,61.71265105,-99999.0,'11111222,11111222,99999999' 
TABS,ioos:station:TABS:X:1,2019-01-07T15:00:00Z,27.0660,-96.3383,2.0,224.1027464,53.75377289,-99999.0,'11111222,11111222,99999999' 
TABS,ioos:station:TABS:X:1,2019-01-07T15:30:00Z,27.0660,-96.3383,2.0,231.627393,35.16608878,-99999.0,'11111222,11111222,99999999' 
TABS,ioos:station:TABS:X:1,2019-01-07T16:00:00Z,27.0660,-96.3383,2.0,229.2781084,32.03636059,-99999.0,'11111222,11111222,99999999' 
TABS,ioos:station:TABS:X:1,2019-01-07T18:00:00Z,27.0660,-96.3383,2.0,213.9413676,18.94874138,-99999.0,'11111222,11111222,99999999' 
TABS,ioos:station:TABS:X:1,2019-01-07T18:30:00Z,27.0660,-96.3383,2.0,315.7428096,20.18959385,-99999.0,'11111222,11111222,99999999' 
TABS,ioos:station:TABS:X:1,2019-01-07T19:00:00Z,27.0660,-96.3383,2.0,286.3927192,34.69009225,-99999.0,'11111222,11111222,99999999' 
TABS,ioos:station:TABS:X:1,2019-01-07T19:30:00Z,27.0660,-96.3383,2.0,340.6530308,9.930810642,-99999.0,'11133222,11111222,99999999' 
TABS,ioos:station:TABS:X:1,2019-01-07T20:00:00Z,27.0660,-96.3383,2.0,339.6658466,10.58996223,-99999.0,'11111222,11111222,99999999' 
TABS,ioos:station:TABS:X:1,2019-01-07T20:30:00Z,27.0660,-96.3383,2.0,333.8957364,16.13598773,-99999.0,'11111222,11111222,99999999' 
TABS,ioos:station:TABS:X:1,2019-01-07T21:00:00Z,27.0660,-96.3383,2.0,307.3442596,30.943059,-99999.0,'11111222,11111222,99999999' 
TABS,ioos:station:TABS:X:1,2019-01-07T21:30:00Z,27.0660,-96.3383,2.0,0.0,0.0,-99999.0,'11133222,11111222,99999999' 
TABS,ioos:station:TABS:X:1,2019-01-07T22:00:00Z,27.0660,-96.3383,2.0,0.0,0.0,-99999.0,'11133222,11111222,99999999' 
TABS,ioos:station:TABS:X:1,2019-01-07T22:30:00Z,27.0660,-96.3383,2.0,0.0,0.0,-99999.0,'11133222,11111222,99999999' 
TABS,ioos:station:TABS:X:1,2019-01-07T23:00:00Z,27.0660,-96.3383,2.0,0.0,0.0,-99999.0,'11133222,11111222,99999999' 
TABS,ioos:station:TABS:X:1,2019-01-07T23:30:00Z,27.0660,-96.3383,2.0,0.0,0.0,-99999.0,'11133222,11111222,99999999' 
TABS,ioos:station:TABS:X:1,2019-01-08T00:00:00Z,27.0660,-96.3383,2.0,0.0,0.0,-99999.0,'11133222,11111222,99999999' 
TABS,ioos:station:TABS:X:1,2019-01-08T00:30:00Z,27.0660,-96.3383,2.0,0.0,0.0,-99999.0,'11133222,11111222,99999999' 
TABS,ioos:station:TABS:X:1,2019-01-08T01:00:00Z,27.0660,-96.3383,2.0,0.0,0.0,-99999.0,'11133222,11111222,99999999' 
TABS,ioos:station:TABS:X:1,2019-01-08T01:30:00Z,27.0660,-96.3383,2.0,0.0,0.0,-99999.0,'11133222,11111222,99999999' 
TABS,ioos:station:TABS:X:1,2019-01-08T02:00:00Z,27.0660,-96.3383,2.0,0.0,0.0,-99999.0,'11133222,11111222,99999999' 
TABS,ioos:station:TABS:X:1,2019-01-08T02:30:00Z,27.0660,-96.3383,2.0,0.0,0.0,-99999.0,'11133222,11111222,99999999' 
TABS,ioos:station:TABS:X:1,2019-01-08T03:00:00Z,27.0660,-96.3383,2.0,0.0,0.0,-99999.0,'11133222,11111222,99999999' 
TABS,ioos:station:TABS:X:1,2019-01-08T03:30:00Z,27.0660,-96.3383,2.0,0.0,0.0,-99999.0,'11133222,11111222,99999999' 
TABS,ioos:station:TABS:X:1,2019-01-08T04:00:00Z,27.0660,-96.3383,2.0,0.0,0.0,-99999.0,'11133222,11111222,99999999' 
TABS,ioos:station:TABS:X:1,2019-01-08T04:30:00Z,27.0660,-96.3383,2.0,0.0,0.0,-99999.0,'11133222,11111222,99999999' 
TABS,ioos:station:TABS:X:1,2019-01-08T05:00:00Z,27.0660,-96.3383,2.0,0.0,0.0,-99999.0,'11133222,11111222,99999999' 
TABS,ioos:station:TABS:X:1,2019-01-08T05:30:00Z,27.0660,-96.3383,2.0,0.0,0.0,-99999.0,'11133222,11111222,99999999' 
TABS,ioos:station:TABS:X:1,2019-01-08T06:00:00Z,27.0660,-96.3383,2.0,0.0,0.0,-99999.0,'11133222,11111222,99999999' 
TABS,ioos:station:TABS:X:1,2019-01-08T06:30:00Z,27.0660,-96.3383,2.0,0.0,0.0,-99999.0,'11133222,11111222,99999999' 
TABS,ioos:station:TABS:X:1,2019-01-08T07:00:00Z,27.0660,-96.3383,2.0,0.0,0.0,-99999.0,'11133222,11111222,99999999' 
TABS,ioos:station:TABS:X:1,2019-01-08T07:30:00Z,27.0660,-96.3383,2.0,0.0,0.0,-99999.0,'11133222,11111222,99999999' 
TABS,ioos:station:TABS:X:1,2019-01-08T08:00:00Z,27.0660,-96.3383,2.0,0.0,0.0,-99999.0,'11133222,11111222,99999999' 
TABS,ioos:station:TABS:X:1,2019-01-08T08:30:00Z,27.0660,-96.3383,2.0,0.0,0.0,-99999.0,'11133222,11111222,99999999' 
TABS,ioos:station:TABS:X:1,2019-01-08T09:00:00Z,27.0660,-96.3383,2.0,0.0,0.0,-99999.0,'11133222,11111222,99999999' 
TABS,ioos:station:TABS:X:1,2019-01-08T09:30:00Z,27.0660,-96.3383,2.0,0.0,0.0,-99999.0,'11133222,11111222,99999999' 
TABS,ioos:station:TABS:X:1,2019-01-08T10:00:00Z,27.0660,-96.3383,2.0,0.0,0.0,-99999.0,'11133222,11111222,99999999' 
TABS,ioos:station:TABS:X:1,2019-01-08T10:30:00Z,27.0660,-96.3383,2.0,0.0,0.0,-99999.0,'11133222,11111222,99999999' 
TABS,ioos:station:TABS:X:1,2019-01-08T11:00:00Z,27.0660,-96.3383,2.0,0.0,0.0,-99999.0,'11133222,11111222,99999999' 
TABS,ioos:station:TABS:X:1,2019-01-08T11:30:00Z,27.0660,-96.3383,2.0,0.0,0.0,-99999.0,'11133222,11111222,99999999' 
TABS,ioos:station:TABS:X:1,2019-01-08T12:00:00Z,27.0660,-96.3383,2.0,0.0,0.0,-99999.0,'11133222,11111222,99999999' 
TABS,ioos:station:TABS:X:1,2019-01-08T12:30:00Z,27.0660,-96.3383,2.0,0.0,0.0,-99999.0,'11133222,11111222,99999999' 
TABS,ioos:station:TABS:X:1,2019-01-08T13:00:00Z,27.0660,-96.3383,2.0,0.0,0.0,-99999.0,'11133222,11111222,99999999' 
 
DISCLAIMER: The Gulf of Mexico Coastal and Ocean Observing (GCOOS) Data Portal aggregates data from the regional data providers for the convenience of all data users. Data published on this website should not be used for navigation or certain other uses as we cannot guarantee data accuracy or availability. The data and delivery services are provided 'as is' without warranty of any kind. Data Source: Gulf of Mexico Coastal Ocean Observing System Data Portal (http://data.gcoos.org/) 
